[[{"header":{"parameterUnit":"m.s-1","parameterCategory":1,"la1":30.2991,"la2":30.254,"lo1":-89.0895,"lo2":-89.0444,"dy":0.0017,"dx":0.0017,"nx":28,"ny":28,"refTime":"2024-05-13T09:00:00:Z","depth":0,"parameterNumber":2,"parameterNumberName":"U-component_of_WINDS"},"data":[0,0,0,0,0,0,0,0,0,0,0,0,0,0,0,0,0,0,0,0,0,0,0,0,0,0,0,0,0,0,0,0,0,0,0,0,0,0,0,0,0,0,0,0,0,0,0,0,0,0,0,0,0,0,0,0,0,0,-1.2675,-1.2674,0,-1.2622,-1.2621,-1.262,-1.26,-1.26,-1.26,-1.26,-1.2541,-1.254,-1.2538,0,0,0,0,0,0,0,0,0,0,0,0,0,-1.2753,-1.2752,-1.2675,-1.2674,-1.2673,-1.2622,-1.2621,-1.262,-1.26,-1.26,-1.26,-1.26,-1.2542,-1.254,-1.2538,0,0,0,0,0,0,0,0,0,0,0,0,0,-1.2711,-1.2751,-1.2675,-1.2657,-1.2655,-1.2622,-1.2621,-1.262,-1.26,-1.26,-1.26,-1.26,-1.2542,-1.254,-1.2537,-1.2517,0,0,-1.2529,-1.2528,0,0,0,0,0,0,0,0,-1.2714,-1.2708,-1.266,-1.2658,-1.2656,-1.2618,-1.2627,-1.2585,-1.26,-1.2621,-1.26,-1.2601,-1.2566,-1.2562,-1.2551,-1.2514,-1.2511,-1.2529,-1.2528,-1.2527,-1.2526,0,0,0,0,0,0,0,-1.2717,-1.271,-1.2653,-1.266,-1.2657,-1.265,-1.2644,-1.2619,-1.2592,-1.2619,-1.2617,-1.2611,-1.2565,-1.2553,-1.2549,-1.251,-1.2529,-1.2527,-1.2525,-1.2524,-1.2451,-1.2451,0,0,0,0,0,0,-1.2723,-1.2713,-1.2655,-1.2652,-1.2686,-1.2648,-1.2642,-1.263,-1.2593,-1.2587,-1.2611,-1.2611,-1.2558,-1.2552,-1.2547,-1.2519,-1.2527,-1.2524,-1.2523,-1.2452,-1.2451,-1.2451,0,0,0,0,0,0,-1.2725,-1.2718,-1.2657,-1.2682,-1.2674,-1.2647,-1.2633,-1.2628,-1.2617,-1.2587,-1.2582,-1.2605,-1.2558,-1.2551,-1.2524,-1.2517,-1.2523,-1.2521,-1.2452,-1.2451,-1.2451,-1.2465,0,0,0,0,0,0,-1.2727,-1.2719,-1.2712,-1.2682,-1.2673,-1.2637,-1.2632,-1.2627,-1.2613,-1.2612,-1.258,-1.2574,-1.2557,-1.2528,-1.2522,-1.2514,-1.2519,-1.2453,-1.2452,-1.2451,-1.2465,-1.2464,-1.2464,0,0,0,0,0,-1.273,-1.2717,-1.2712,-1.2705,-1.2664,-1.2637,-1.2631,-1.2613,-1.2613,-1.2605,-1.2585,-1.2576,-1.2519,-1.2526,-1.2518,-1.2509,-1.2453,-1.2452,-1.2451,-1.2465,-1.2465,-1.2464,0,0,0,0,0,0,-1.2746,-1.2713,-1.2707,-1.2685,-1.2664,-1.2633,-1.2623,-1.2614,-1.2592,-1.2591,-1.2568,-1.2561,-1.2536,-1.252,-1.2528,-1.2486,-1.2485,-1.2483,-1.2498,-1.2497,-1.2497,-1.2502,-1.2516,0,0,0,0,0,-1.2748,-1.273,-1.2701,-1.2684,-1.2674,-1.265,-1.2638,-1.2626,-1.2603,-1.2593,-1.2572,-1.2548,-1.2525,-1.251,-1.2487,-1.2462,-1.2454,-1.2452,-1.2452,-1.2452,-1.245,-1.2434,-1.2432,-1.2448,-1.2448,-1.2448,0,0,-1.275,-1.2729,-1.2719,-1.2687,-1.2669,-1.265,-1.2643,-1.2623,-1.2608,-1.259,-1.2564,-1.2547,-1.2519,-1.2492,-1.248,-1.2478,-1.2444,-1.2451,-1.2451,-1.2449,-1.2432,-1.2431,-1.243,-1.2447,-1.2447,-1.2447,0,0,-1.2743,-1.2727,-1.271,-1.2693,-1.2667,-1.265,-1.2646,-1.2617,-1.2606,-1.2579,-1.2565,-1.2545,-1.2506,-1.2487,-1.2471,-1.2456,-1.2445,-1.2449,-1.2448,-1.2432,-1.2431,-1.243,-1.2423,-1.2421,-1.2447,-1.2447,-1.2447,0,-1.2749,-1.2721,-1.2702,-1.2683,-1.2668,-1.2652,-1.2634,-1.2617,-1.2584,-1.2574,-1.2573,-1.2523,-1.2503,-1.2471,-1.2467,-1.2455,-1.2449,-1.2452,-1.2433,-1.2432,-1.243,-1.2424,-1.2421,-1.2447,-1.2447,-1.2447,-1.2447,0,-1.2728,-1.2708,-1.2698,-1.2667,-1.2651,-1.2633,-1.261,-1.2596,-1.2584,-1.2568,-1.254,-1.2515,-1.2486,-1.2478,-1.2466,-1.2443,-1.2443,-1.2438,-1.2436,-1.243,-1.2423,-1.242,-1.2448,-1.2448,-1.2448,-1.2448,0,0,-1.2731,-1.2691,-1.2687,-1.2673,-1.2642,-1.2625,-1.2605,-1.2578,-1.2565,-1.2542,-1.2524,-1.249,-1.2485,-1.2468,-1.2453,-1.244,-1.2427,-1.2436,-1.2434,-1.2434,-1.2399,-1.2403,-1.2401,-1.242,-1.2419,-1.2419,-1.2401,0,-1.2721,-1.2685,-1.2668,-1.2639,-1.262,-1.2603,-1.2585,-1.2563,-1.2546,-1.2526,-1.2506,-1.2483,-1.2478,-1.2467,-1.2453,-1.2432,-1.242,-1.2433,-1.24,-1.24,-1.2408,-1.2397,-1.2402,-1.2386,-1.2398,-1.2398,-1.2398,0,-1.2704,-1.2682,-1.2652,-1.2622,-1.2613,-1.2598,-1.2571,-1.2552,-1.2526,-1.2514,-1.2495,-1.248,-1.2456,-1.2456,-1.2421,-1.243,-1.2415,-1.2402,-1.2401,-1.2398,-1.2398,-1.2393,-1.2381,-1.2379,-1.2394,-1.2394,-1.2394,0,-1.2709,-1.2672,-1.2649,-1.2637,-1.2602,-1.2591,-1.2575,-1.2549,-1.2534,-1.2509,-1.2498,-1.2471,-1.2456,-1.2434,-1.2412,-1.2414,-1.2378,-1.2377,-1.2366,-1.2367,-1.236,-1.2361,-1.2346,-1.2351,-1.2351,-1.2351,-1.2351,0,-1.2699,-1.2681,-1.2651,-1.2637,-1.2615,-1.2594,-1.2572,-1.2555,-1.2532,-1.2513,-1.2495,-1.2477,-1.2449,-1.2427,-1.2409,-1.2382,-1.2375,-1.2364,-1.2359,-1.2365,-1.2367,-1.2356,-1.2356,-1.235,-1.2351,-1.2351,-1.2351,0,-1.2701,-1.2681,-1.2654,-1.2623,-1.2614,-1.26,-1.2572,-1.2556,-1.2538,-1.2514,-1.2507,-1.2478,-1.245,-1.2426,-1.2389,-1.2377,-1.2349,-1.2344,-1.2359,-1.2356,-1.2348,-1.2349,-1.2324,-1.232,-1.2329,-1.2329,-1.2329,0,-1.2696,-1.2682,-1.2649,-1.2636,-1.2621,-1.2599,-1.2583,-1.2561,-1.2544,-1.2512,-1.25,-1.2472,-1.2448,-1.2404,-1.2379,-1.235,-1.2344,-1.2337,-1.2339,-1.2345,-1.2343,-1.2344,-1.2342,-1.2337,-1.2337,-1.2337,-1.2337,0,-1.269,-1.268,-1.2658,-1.2633,-1.2614,-1.2593,-1.257,-1.256,-1.2532,-1.2515,-1.2487,-1.2469,-1.2431,-1.2403,-1.2371,-1.2352,-1.234,-1.2337,-1.2333,-1.2339,-1.2348,-1.2342,-1.2359,-1.2337,-1.2337,-1.2337,-1.2337,-1.2337,-1.2688,-1.2674,-1.2648,-1.2624,-1.2605,-1.2585,-1.2568,-1.2548,-1.2525,-1.2494,-1.2482,-1.2453,-1.2425,-1.2381,-1.2362,-1.2338,-1.2336,-1.2331,-1.2329,-1.2328,-1.2329,-1.2352,-1.2332,-1.2332,-1.2332,-1.2332,-1.2332,0,-1.268,-1.2662,-1.264,-1.261,-1.2591,-1.2581,-1.2556,-1.254,-1.2515,-1.2491,-1.2468,-1.2435,-1.2406,-1.2378,-1.2348,-1.2334,-1.2327,-1.2327,-1.2327,-1.2323,-1.2333,-1.2339,-1.2333,-1.2333,-1.2333,-1.2333,-1.2333,-1.2333,-1.2673,-1.2649,-1.2636,-1.2601,-1.2583,-1.2556,-1.2542,-1.2522,-1.2502,-1.2467,-1.2444,-1.2426,-1.2399,-1.2367,-1.2339,-1.2332,-1.2321,-1.2322,-1.2312,-1.2322,-1.2323,-1.2323,-1.2329,-1.232,-1.232,-1.2305,-1.2304,-1.2304]},{"header":{"parameterUnit":"m.s-1","parameterCategory":1,"la1":30.2991,"la2":30.254,"lo1":-89.0895,"lo2":-89.0444,"dy":0.0017,"dx":0.0017,"nx":28,"ny":28,"refTime":"2024-05-13T09:00:00:Z","depth":0,"parameterNumber":3,"parameterNumberName":"V-component_of_WINDS"},"data":[0,0,0,0,0,0,0,0,0,0,0,0,0,0,0,0,0,0,0,0,0,0,0,0,0,0,0,0,0,0,0,0,0,0,0,0,0,0,0,0,0,0,0,0,0,0,0,0,0,0,0,0,0,0,0,0,0,0,1.5651,1.5652,0,1.5748,1.5749,1.575,1.5755,1.5754,1.5753,1.5752,1.5852,1.5856,1.5859,0,0,0,0,0,0,0,0,0,0,0,0,0,1.5471,1.5475,1.5651,1.5652,1.5653,1.5748,1.5749,1.575,1.5755,1.5754,1.5752,1.5751,1.5851,1.5855,1.586,0,0,0,0,0,0,0,0,0,0,0,0,0,1.5557,1.5476,1.5651,1.5667,1.567,1.5747,1.5749,1.5751,1.5756,1.5754,1.5752,1.5751,1.5849,1.5855,1.586,1.5928,0,0,1.5877,1.588,0,0,0,0,0,0,0,0,1.5552,1.5564,1.5663,1.5666,1.5669,1.5738,1.5722,1.581,1.5756,1.5723,1.5752,1.575,1.5815,1.5824,1.5845,1.5933,1.5937,1.5878,1.5881,1.5883,1.5885,0,0,0,0,0,0,0,1.5546,1.5559,1.5689,1.5665,1.5668,1.567,1.568,1.5739,1.5777,1.5726,1.5726,1.5738,1.5816,1.584,1.5848,1.5939,1.5878,1.5882,1.5886,1.5888,1.6088,1.609,0,0,0,0,0,0,1.5537,1.5554,1.5686,1.5692,1.5605,1.5675,1.5686,1.5717,1.5777,1.5784,1.5739,1.5737,1.5831,1.5841,1.5851,1.5936,1.5883,1.5889,1.5892,1.6086,1.6089,1.6091,0,0,0,0,0,0,1.5533,1.5549,1.5682,1.5624,1.5641,1.568,1.5714,1.572,1.5744,1.5787,1.5794,1.5756,1.583,1.5844,1.5909,1.5939,1.5891,1.5896,1.6084,1.6087,1.609,1.6104,0,0,0,0,0,0,1.5528,1.5547,1.5573,1.5624,1.5644,1.5738,1.5716,1.5723,1.5753,1.5752,1.5805,1.5812,1.583,1.5901,1.5915,1.5946,1.5901,1.6081,1.6085,1.6089,1.6101,1.6107,1.6112,0,0,0,0,0,1.5521,1.5573,1.5574,1.559,1.5677,1.574,1.5751,1.5771,1.5755,1.5782,1.581,1.581,1.5934,1.5908,1.5923,1.5956,1.608,1.6084,1.6088,1.6098,1.6106,1.6112,0,0,0,0,0,0,1.5525,1.558,1.5582,1.5652,1.5691,1.574,1.5774,1.5778,1.5823,1.582,1.5843,1.5855,1.592,1.5945,1.5915,1.6026,1.6005,1.6013,1.6007,1.6015,1.602,1.6013,1.5905,0,0,0,0,0,1.5534,1.558,1.5626,1.5683,1.5703,1.5735,1.5763,1.5775,1.5817,1.5834,1.5866,1.5907,1.5955,1.5986,1.6033,1.6105,1.6117,1.6135,1.6141,1.6145,1.6152,1.6192,1.6201,1.6105,1.6105,1.6105,0,0,1.5552,1.5588,1.5616,1.5685,1.5716,1.5764,1.5749,1.58,1.5836,1.5841,1.5905,1.5931,1.5978,1.6047,1.6079,1.607,1.6181,1.6151,1.6154,1.6158,1.6198,1.6207,1.6215,1.6108,1.6108,1.6107,0,0,1.5611,1.5643,1.5694,1.5726,1.5774,1.5796,1.5808,1.5858,1.5875,1.5939,1.5945,1.5988,1.607,1.6104,1.6132,1.6204,1.6206,1.6218,1.6248,1.6287,1.6294,1.6301,1.6327,1.6336,1.6225,1.6225,1.6225,0,1.5628,1.5699,1.572,1.5771,1.5801,1.5809,1.5861,1.5892,1.5953,1.5974,1.5962,1.6066,1.6098,1.6176,1.6193,1.6216,1.6231,1.6212,1.6291,1.6299,1.6305,1.633,1.634,1.6226,1.6226,1.6226,1.6226,0,1.5718,1.5768,1.5804,1.5862,1.5897,1.5948,1.5977,1.6009,1.6019,1.6042,1.6108,1.6147,1.6202,1.6221,1.6231,1.6301,1.6293,1.6287,1.6266,1.6315,1.6339,1.6349,1.6228,1.6227,1.6227,1.6227,0,0,1.578,1.585,1.5863,1.589,1.5945,1.5984,1.6036,1.609,1.6117,1.616,1.6204,1.6274,1.6268,1.63,1.6314,1.6348,1.6403,1.6337,1.6339,1.6348,1.6483,1.6487,1.6498,1.6405,1.6407,1.6408,1.6479,0,1.5845,1.5937,1.5957,1.6037,1.6084,1.6092,1.6138,1.6177,1.62,1.6243,1.6269,1.6318,1.6307,1.6326,1.636,1.6389,1.643,1.6384,1.6447,1.6449,1.6435,1.651,1.6515,1.658,1.6488,1.649,1.6491,0,1.5932,1.5976,1.606,1.6109,1.613,1.617,1.6221,1.6263,1.6307,1.6321,1.6357,1.6368,1.6423,1.64,1.6477,1.6445,1.6472,1.649,1.6493,1.6499,1.6473,1.6519,1.6601,1.661,1.6506,1.6505,1.6504,0,1.5968,1.6049,1.6111,1.6133,1.6192,1.6221,1.6246,1.6289,1.632,1.6365,1.6386,1.6437,1.6465,1.6504,1.6528,1.6509,1.6604,1.6582,1.6618,1.6617,1.6637,1.6635,1.6724,1.6654,1.6654,1.6654,1.6654,0,1.6038,1.6089,1.6128,1.6165,1.6224,1.6247,1.6304,1.633,1.6368,1.6412,1.6422,1.6463,1.6492,1.6537,1.6557,1.6618,1.663,1.6644,1.6648,1.6643,1.6641,1.666,1.6656,1.6657,1.6656,1.6656,1.6655,0,1.6088,1.6116,1.6184,1.6234,1.6248,1.6288,1.6332,1.6369,1.6393,1.6447,1.6462,1.6499,1.6553,1.6581,1.6647,1.6661,1.6729,1.6731,1.6714,1.6716,1.6749,1.6746,1.6854,1.6869,1.6789,1.679,1.6791,0,1.613,1.617,1.6225,1.6255,1.6281,1.6329,1.6361,1.6386,1.6419,1.6473,1.6504,1.6558,1.6602,1.6687,1.6721,1.6772,1.6775,1.681,1.6783,1.6777,1.6776,1.6773,1.6778,1.6814,1.6815,1.6816,1.6816,0,1.6202,1.6214,1.626,1.6311,1.6349,1.639,1.6431,1.6454,1.6486,1.6523,1.6578,1.6612,1.6681,1.6734,1.6789,1.6816,1.6822,1.6824,1.6835,1.683,1.6818,1.6825,1.6726,1.6822,1.6821,1.6821,1.682,1.682,1.625,1.6286,1.633,1.6381,1.6414,1.6452,1.649,1.6519,1.6565,1.6622,1.6634,1.6692,1.6737,1.681,1.6839,1.6885,1.6878,1.6894,1.6898,1.6901,1.6903,1.6811,1.6895,1.6895,1.6895,1.6895,1.6895,0,1.6322,1.6351,1.6398,1.6455,1.6495,1.6497,1.6542,1.6576,1.6627,1.6668,1.6711,1.6775,1.6827,1.6865,1.6919,1.6948,1.6952,1.6962,1.696,1.6966,1.6906,1.6891,1.6957,1.6957,1.6957,1.6957,1.6957,1.6957,1.6365,1.6426,1.6443,1.6522,1.6551,1.6607,1.6633,1.6669,1.6702,1.6772,1.6815,1.684,1.688,1.6937,1.6985,1.6995,1.7014,1.7023,1.7033,1.6977,1.697,1.6964,1.695,1.7027,1.7027,1.709,1.709,1.709]}]]